Location: ICStars Ranch
(38.8297°N, 93.7687°W)
Time: 22:38:28
(UTC-05:00)

Daily predictions for brighter satellites

Satellite Brightness Start Highest point End
(mag) Time Altitude Azimuth Time Altitude Azimuth Time Altitude Azimuth
H-2A R/B 3.9 20:42:47 10° SW 20:46:08 30° SSE 20:57:47 10° ESE
Cosmos 2074 Rocket 4.1 20:45:08 10° S 20:51:25 86° E 20:57:42 10° N
Cosmos 2084 3.2 20:50:28 10° SSW 20:54:20 90° WNW 20:58:10 10° NE
Cosmos 1606 3.6 20:50:58 10° NNE 20:54:34 33° ENE 20:58:08 10° SE
Meteor 1-10 Rocket 4.3 20:49:18 10° N 20:55:08 77° E 21:00:46 10° SSE
Cosmos 1892 3.7 20:54:31 10° SSW 20:58:16 53° W 21:02:05 10° N
TIMED 4.5 20:55:16 10° S 20:59:37 74° ESE 21:03:58 10° NNE
CZ-4 DEB 3.2 20:56:51 10° SSE 20:59:52 43° ENE 21:02:54 10° N
Cosmos 1610 Rocket 4.5 20:55:54 10° S 21:02:00 71° E 21:08:14 10° NNE
Cosmos 1242 Rocket 4.5 20:59:54 10° NNE 21:02:13 16° ENE 21:04:32 10° ESE
Resurs 01 Rocket 4.0 21:00:43 10° SSW 21:04:16 24° W 21:07:51 10° NW
USA 186 2.0 21:01:21 10° S 21:04:30 75° WSW 21:07:51 10° NNW
Cosmos 1174 3.0 21:01:31 10° NNW 21:04:39 77° ENE 21:07:36 10° SSE
ALOS 2.7 21:00:56 10° S 21:05:35 66° W 21:10:15 10° NNW
Cosmos 676 Rocket 4.0 21:01:31 10° NNW 21:06:44 68° ENE 21:11:56 10° SSE
Cosmos 1862 3.7 21:02:57 10° SSE 21:06:48 43° E 21:10:42 10° NNE
Sich 1 Rocket 3.6 21:02:38 10° S 21:07:11 72° E 21:11:45 10° NNE
COS B Rocket 4.1 21:04:20 10° NNE 21:07:37 27° E 21:10:35 10° SE
Coronas F rocket 4.1 21:06:57 10° SW 21:09:07 22° WNW 21:11:18 10° NNW
Cosmos 1954 Rocket 4.2 21:04:02 10° N 21:09:10 55° ENE 21:14:18 10° SSE
GPS 2-05 Rocket1 3.3 21:06:42 10° WSW 21:10:21 51° S 21:13:49 11° ESE
OAO 3 Rocket 3.9 21:05:59 10° SW 21:10:34 38° SSE 21:15:09 10° E
Nadezhda 3 Rocket 4.3 21:04:40 10° N 21:10:54 53° E 21:17:06 10° SSE
Lacrosse 5 rocket 3.1 21:10:13 10° SE 21:11:36 12° ESE 21:12:58 10° E
Cosmos 1975 Rocket 4.0 21:08:50 10° NNE 21:12:37 29° ENE 21:16:10 11° SE
BREEZE-M DEB (TANK) 4.3 21:10:55 10° W 21:13:08 29° NNW 21:17:13 10° NE
ATLAS 5 CENTAUR R/B 3.9 21:08:50 10° NW 21:14:19 35° WSW 21:20:05 10° S
Cosmos 1408 2.9 21:10:57 10° SSE 21:14:25 43° E 21:17:53 10° NNE
SJ-11-01 4.4 21:10:18 10° SSE 21:14:58 60° ENE 21:19:39 10° N
H-2A R/B 3.6 21:12:53 10° S 21:16:28 49° W 21:20:07 10° NNW
Meteor 1-27 Rocket 3.7 21:14:29 10° N 21:20:02 73° E 21:25:31 10° SSE
Cosmos 1733 Rocket 4.4 21:16:16 10° SSW 21:20:27 43° W 21:24:38 10° N
Cosmos 1378 Rocket 3.6 21:16:26 10° N 21:20:41 56° E 21:24:57 10° SSE
Cosmos 1908 Rocket 3.5 21:16:57 10° S 21:21:21 81° E 21:25:48 10° N
Cosmos 1782 3.9 21:27:13 10° NNW 21:31:06 45° W 21:34:57 10° SSW
Cosmos 1825 2.2 21:34:13 10° S 21:38:02 84° W 21:41:53 10° N
SEDSat Delta rocket 4.0 21:35:54 10° SW 21:39:43 27° S 21:41:22 21° SE
Envisat 3.0 21:35:07 12° SSE 21:39:46 70° ENE 21:44:50 10° N
Cosmos 614 Rocket 4.4 21:35:06 10° N 21:39:58 44° ENE 21:43:08 20° SE
Cosmos 2341 Rocket 4.0 21:35:03 10° S 21:41:20 81° E 21:47:37 10° N
Cosmos 1833 Rocket 3.7 21:36:51 10° N 21:41:50 31° ENE 21:45:06 18° ESE
deb Chang Zheng 4 3.5 21:37:56 10° NNE 21:42:22 74° ESE 21:46:48 10° S
SL-8 Rocket 4.2 21:38:26 10° SSE 21:44:26 49° E 21:50:23 10° NNE
Cosmos 962 Rocket 4.5 21:39:44 10° S 21:45:54 87° E 21:52:11 10° N
Terra 4.0 21:45:09 10° ENE 21:46:09 11° ENE 21:47:10 10° NE
ISS -0.6 21:45:07 10° WNW 21:47:40 21° NNW 21:50:14 10° NNE
Cosmos 2278 Rocket 2.8 21:43:03 10° SW 21:48:39 59° WNW 21:54:17 10° NNE
ERS-1 Rocket 3.3 21:43:41 10° S 21:48:41 65° WSW 21:53:42 10° NNW
H-2A R/B 1.9 21:46:49 17° SSE 21:50:06 84° ENE 21:54:19 10° NNW
Atlas Centaur 2 3.4 21:50:57 10° SSW 21:51:40 10° SSW 21:52:18 10° S
Cosmos 1420 Rocket 4.1 21:47:39 10° SSW 21:52:53 80° WNW 21:58:08 10° NNE
Cosmos 1939 Rocket 3.1 21:50:56 14° S 21:54:12 66° W 21:58:08 10° NNW
Okean 3 3.6 21:51:04 10° NNW 21:55:20 73° W 21:58:46 15° S
Abrixas 2.3 21:52:31 10° SW 21:55:33 88° SSE 21:58:21 12° ENE
Cosmos 1140 Rocket 3.5 21:51:51 10° NNW 21:57:00 82° WSW 22:00:43 19° SSE
COSMOS 2487 3.5 21:54:01 10° NNW 21:57:28 42° WSW 22:00:04 16° S
APEX 3.8 21:54:30 10° SSW 21:58:22 70° WNW 22:03:32 10° NNE
Cosmos 2151 Rocket 4.1 21:56:55 26° SE 21:58:54 41° E 22:03:10 10° NNE
Cosmos 1295 Rocket 4.4 21:53:41 10° S 21:59:59 81° E 22:06:16 10° N
Timation 2 Rocket 3.8 21:54:04 10° NNW 22:00:04 90° NE 22:04:05 22° SSE
Cosmos 1238 Rocket 3.5 21:59:01 10° NNW 22:02:27 50° W 22:06:08 12° SSW
SPOT 5 3.1 22:02:47 21° SSE 22:06:26 87° E 22:11:50 10° NNW
CZ-4B R/B 3.7 22:01:50 10° NNE 22:06:29 43° E 22:08:19 30° SSE
Cosmos 2082 Rocket 2.2 22:04:21 10° NNW 22:10:02 67° ENE 22:12:49 30° SE
NOSS 8 (F) 4.3 22:08:51 10° SSW 22:12:21 85° ESE 22:15:59 10° NE
Cosmos 1812 4.0 22:11:57 10° NNE 22:15:11 26° ENE 22:15:11 26° ENE
Lacrosse 5 2.2 22:12:41 10° SSW 22:17:26 41° SE 22:22:12 10° NE
H-2A R/B 3.1 22:20:50 27° E 22:22:15 31° ENE 22:26:52 10° N
UNK 4.4 22:18:59 10° NNE 22:25:10 88° ESE 22:30:20 14° SSW
Meteor 1-18 Rocket 4.4 22:20:22 10° N 22:26:16 63° E 22:28:36 37° SE
Cosmos 2366 rocket 3.9 22:22:11 21° S 22:26:35 78° E 22:32:56 10° N
Cosmos 2297 4.4 22:21:50 10° SW 22:27:26 57° WNW 22:33:06 10° NNE
MetOp-B 4.2 22:25:01 27° S 22:27:59 73° WSW 22:33:21 10° NNW
NOAA 11 4.2 22:28:27 38° SSE 22:30:36 72° ENE 22:36:06 10° N
Meteor 1-14 Rocket 4.4 22:26:18 11° SSW 22:31:49 70° W 22:37:24 10° N
Cosmos 1242 Rocket 4.4 22:34:06 10° NNW 22:37:17 28° W 22:38:59 19° SW
SPOT 1/Viking Rocket 3.5 22:35:56 40° S 22:37:53 85° WSW 22:43:09 10° NNW
ASTEX 1 4.3 22:40:26 10° NNE 22:44:26 32° ENE 22:44:26 32° ENE
YAOGAN 6 3.6 22:45:16 35° WSW 22:45:47 37° W 22:49:05 10° NNW
CARTOSAT-1 4.1 22:49:49 43° ENE 22:49:49 43° ENE 22:53:45 10° N
Lacrosse 5 rocket 1.4 22:46:28 10° SW 22:50:24 68° NW 22:54:09 10° NE
USA 229 DEB 3.8 22:44:37 10° NW 22:51:43 73° WSW 22:54:27 41° SSE
USA 229 3.8 22:44:43 10° NW 22:51:49 74° WSW 22:54:33 41° SSE
ARGOS 3.2 22:50:37 44° S 22:52:20 72° WSW 22:57:42 10° NNW
Meteor 2-19 Rocket 4.4 22:49:34 34° S 22:52:26 89° W 22:58:34 10° N
OAO 3 Rocket 3.4 22:48:57 10° WSW 22:53:20 53° SSW 22:53:20 53° SSW
Cosmos 2369 Rocket 3.3 22:55:52 27° ENE 22:55:52 27° ENE 22:59:19 10° NE
SL-08 RB Rocket 3.7 22:53:47 62° SSW 22:54:29 77° WSW 22:59:09 10° NNW
Meteor 1-11 Rocket 4.2 22:56:17 44° E 22:56:26 44° E 23:01:51 10° NNE
AVUM R/B 4.5 22:54:38 10° NW 22:57:23 41° WNW 22:57:23 41° WNW
CZ-4 R/B 3.8 22:53:29 10° N 22:58:08 73° WNW 22:59:17 50° SW
Cosmos 1536 Rocket 4.2 22:59:09 10° NNW 23:03:29 50° W 23:04:13 45° SW
Landsat 7 3.7 23:07:13 78° SSW 23:07:29 82° WSW 23:12:16 10° NNW
IGS 5A 4.0 23:09:05 52° NNE 23:09:05 52° NNE 23:12:30 10° N
Cosmos 1331 Rocket 4.4 23:07:15 31° SW 23:09:37 60° WNW 23:14:43 10° N
NOSS 3-1 (A) 4.4 23:02:37 10° NNW 23:10:01 53° NE 23:12:56 37° ESE
Gbstr 26 Del rocket 3.3 23:05:12 10° NW 23:10:03 61° NNE 23:10:03 61° NNE
CZ-4C R/B 3.7 23:11:59 63° NW 23:11:59 63° NW 23:15:36 10° NNW
DELTA 2 DEB (DPAF) 4.2 23:12:14 75° W 23:12:14 75° W 23:16:36 10° NNW
Cosmos 1727 Rocket 4.4 23:06:53 10° NNW 23:12:54 56° W 23:15:11 36° SSW
Cosmos 1400 Rocket 4.3 23:19:55 31° NNE 23:19:55 31° NNE 23:22:17 10° NNE
Cosmos 1943 Rocket 4.2 23:21:41 14° ENE 23:21:41 14° ENE 23:22:53 10° NE
Terra 1.8 23:23:26 78° NW 23:23:26 78° NW 23:27:58 10° NNW
Meteor 1-19 Rocket 4.3 23:19:11 10° N 23:25:00 64° E 23:25:07 64° E
Cosmos 1833 Rocket 3.7 23:20:42 10° NW 23:25:44 35° WSW 23:26:48 32° SW
Cosmos 1025 Rocket 4.0 23:25:46 10° N 23:28:54 41° NNE 23:28:54 41° NNE
ATLAS 2AS CENTAUR R/B 4.3 23:23:32 10° NNW 23:30:40 32° NE 23:34:23 22° E
Meteor 2-21 Rocket 4.3 23:33:03 71° ESE 23:33:14 71° E 23:39:25 10° NNE
DMSP B5D2-2 4.2 23:28:29 10° N 23:33:41 69° WNW 23:34:07 65° WSW
NOSS 3-1 (C) 4.0 23:30:55 10° NNW 23:38:38 89° ENE 23:40:23 60° SSE
Cosmos 1821 Rocket 3.8 23:42:00 78° SSW 23:42:29 88° W 23:48:44 10° N
Meteor 2-21 4.4 23:42:20 70° SW 23:43:01 79° W 23:49:15 10° N
Cosmos 1605 Rocket 4.3 23:43:43 54° E 23:43:43 54° E 23:49:38 10° NNE
USA 234 3.1 23:38:24 10° NE 23:44:57 75° SE 23:45:23 73° SSE
Spot 4 4.3 23:45:42 59° WNW 23:45:42 59° WNW 23:49:54 10° NNW
Cosmos 1934 Rocket 3.8 23:49:38 87° ENE 23:49:38 87° ENE 23:55:41 10° N
Cosmos 1354 Rocket 4.2 23:46:16 10° NNW 23:50:52 68° NNW 23:50:52 68° NNW
Cosmos 2082 Rocket 4.3 23:50:17 10° WNW 23:53:27 15° W 23:54:41 14° WSW
